{"data":{"norad_id":41920,"epoch":"2026-05-24T23:08:14.097984Z","epoch_age_seconds":81205,"freshness":"FRESH","line1":"1 41920U 17003D   26144.96405206  .00000213  00000+0  69000-4 0  9990","line2":"2 41920  86.3949  98.1472 0002261  85.7894 274.3560 14.34218262489955","mean_motion":14.34218262,"eccentricity":0.0002261,"inclination_deg":86.3949,"raan_deg":98.1472,"arg_perigee_deg":85.7894,"mean_anomaly_deg":274.356,"bstar":6.9e-5,"rev_number":48995,"period_min":100.40312818162,"perigee_km":776.0475243907,"apogee_km":779.28337825919,"semimajor_km":7155.8024513249,"source":"CELESTRAK","updated_at":"2026-05-25T13:38:14.763351Z"}}